contact:dominique.lefevre@mio.osupytheas.fr, maurice.libes@osupytheas.fr, didier.mallarino@osupytheas.fr
Project:EMSO http://www.emso-fr.org/EMSO-France
Depth: 2436.0 m
Title:EMSO Ligure Ouest : Data MII capteur CSTAR
DateTime,Latitude,Longitude,Instrument_Serial,Reference_Counts,Signal_Counts,Corrected_Signal_raw_counts,Calculated_Beam_c_inverse_meters,Internal_thermistor_counts
DateTime,Latitude,Longitude,Instrument_Serial,Reference_Counts,Signal_Counts,Corrected_Signal_raw_counts,Calculated_Beam_c_inverse_meters,Internal_thermistor_counts
2023-06-03T00:01:35,42.805,6.029,CST-1368DR,4299,4765,11766,01.132,552
2023-06-03T00:04:36,42.805,6.029,CST-1368DR,4299,4765,11766,01.132,552
2023-06-03T00:07:38,42.805,6.029,CST-1368DR,4299,4766,11769,01.131,552
2023-06-03T00:10:40,42.805,6.029,CST-1368DR,4299,4766,11769,01.131,552
2023-06-03T00:13:41,42.805,6.029,CST-1368DR,4299,4766,11769,01.131,552
2023-06-03T00:16:43,42.805,6.029,CST-1368DR,4299,4765,11768,01.132,552
2023-06-03T00:19:44,42.805,6.029,CST-1368DR,4299,4766,11771,01.131,552
2023-06-03T00:22:46,42.805,6.029,CST-1368DR,4299,4766,11770,01.131,552
2023-06-03T00:25:47,42.805,6.029,CST-1368DR,4299,4765,11768,01.132,552
2023-06-03T00:28:49,42.805,6.029,CST-1368DR,4299,4767,11772,01.130,552
2023-06-03T00:31:51,42.805,6.029,CST-1368DR,4299,4767,11772,01.130,552
2023-06-03T00:34:52,42.805,6.029,CST-1368DR,4299,4767,11772,01.130,552
2023-06-03T00:37:54,42.805,6.029,CST-1368DR,4299,4766,11770,01.131,552
2023-06-03T00:40:55,42.805,6.029,CST-1368DR,4299,4768,11774,01.130,552
2023-06-03T00:43:57,42.805,6.029,CST-1368DR,4300,4767,11770,01.131,552
2023-06-03T00:46:58,42.805,6.029,CST-1368DR,4300,4767,11770,01.131,552
2023-06-03T00:50:00,42.805,6.029,CST-1368DR,4300,4767,11769,01.131,552
2023-06-03T00:53:02,42.805,6.029,CST-1368DR,4299,4767,11773,01.130,552
2023-06-03T00:56:03,42.805,6.029,CST-1368DR,4299,4766,11771,01.131,552
2023-06-03T00:59:05,42.805,6.029,CST-1368DR,4299,4767,11771,01.131,552
2023-06-03T01:02:06,42.805,6.029,CST-1368DR,4299,4766,11769,01.131,552
2023-06-03T01:05:08,42.805,6.029,CST-1368DR,4299,4767,11773,01.130,552
2023-06-03T01:08:10,42.805,6.029,CST-1368DR,4299,4767,11772,01.130,552
2023-06-03T01:11:11,42.805,6.029,CST-1368DR,4299,4767,11771,01.131,552
2023-06-03T01:14:13,42.805,6.029,CST-1368DR,4299,4767,11771,01.131,552
2023-06-03T01:17:14,42.805,6.029,CST-1368DR,4299,4767,11772,01.130,552
2023-06-03T01:20:16,42.805,6.029,CST-1368DR,4299,4767,11771,01.131,552
2023-06-03T01:23:17,42.805,6.029,CST-1368DR,4299,4766,11771,01.131,552
2023-06-03T01:26:19,42.805,6.029,CST-1368DR,4299,4767,11771,01.131,552
2023-06-03T01:29:21,42.805,6.029,CST-1368DR,4299,4765,11767,01.132,552
2023-06-03T01:32:22,42.805,6.029,CST-1368DR,4299,4768,11774,01.130,552
2023-06-03T01:35:24,42.805,6.029,CST-1368DR,4299,4766,11771,01.131,552
2023-06-03T01:38:25,42.805,6.029,CST-1368DR,4299,4767,11772,01.130,552
2023-06-03T01:41:27,42.805,6.029,CST-1368DR,4299,4766,11769,01.131,552
2023-06-03T01:44:28,42.805,6.029,CST-1368DR,4299,4768,11774,01.130,552
2023-06-03T01:47:30,42.805,6.029,CST-1368DR,4299,4767,11772,01.130,552
2023-06-03T01:50:32,42.805,6.029,CST-1368DR,4299,4767,11772,01.130,552
2023-06-03T01:53:33,42.805,6.029,CST-1368DR,4299,4767,11771,01.131,552
2023-06-03T01:56:35,42.805,6.029,CST-1368DR,4299,4767,11772,01.130,552
2023-06-03T01:59:36,42.805,6.029,CST-1368DR,4299,4764,11766,01.132,552
2023-06-03T02:02:38,42.805,6.029,CST-1368DR,4299,4767,11773,01.130,552
2023-06-03T02:05:40,42.805,6.029,CST-1368DR,4299,4767,11771,01.131,552
2023-06-03T02:08:41,42.805,6.029,CST-1368DR,4299,4768,11774,01.130,552
2023-06-03T02:11:43,42.805,6.029,CST-1368DR,4299,4766,11771,01.131,552
2023-06-03T02:14:44,42.805,6.029,CST-1368DR,4299,4766,11771,01.131,552
2023-06-03T02:17:46,42.805,6.029,CST-1368DR,4299,4767,11773,01.130,552
2023-06-03T02:20:47,42.805,6.029,CST-1368DR,4299,4766,11770,01.131,552
2023-06-03T02:23:49,42.805,6.029,CST-1368DR,4299,4767,11771,01.131,552
2023-06-03T02:26:51,42.805,6.029,CST-1368DR,4299,4766,11769,01.131,552
2023-06-03T02:29:52,42.805,6.029,CST-1368DR,4299,4767,11773,01.130,552
2023-06-03T02:32:54,42.805,6.029,CST-1368DR,4299,4766,11771,01.131,552
2023-06-03T02:35:55,42.805,6.029,CST-1368DR,4299,4766,11771,01.131,552
2023-06-03T02:38:57,42.805,6.029,CST-1368DR,4299,4765,11768,01.132,552
2023-06-03T02:41:58,42.805,6.029,CST-1368DR,4299,4767,11773,01.130,552
2023-06-03T02:45:00,42.805,6.029,CST-1368DR,4299,4766,11771,01.131,552
2023-06-03T02:48:02,42.805,6.029,CST-1368DR,4299,4766,11769,01.131,552
2023-06-03T02:51:03,42.805,6.029,CST-1368DR,4299,4766,11771,01.131,552
2023-06-03T02:54:05,42.805,6.029,CST-1368DR,4299,4767,11772,01.130,552
2023-06-03T02:57:06,42.805,6.029,CST-1368DR,4299,4766,11769,01.131,552
2023-06-03T03:00:08,42.805,6.029,CST-1368DR,4299,4768,11774,01.130,552
2023-06-03T03:03:10,42.805,6.029,CST-1368DR,4299,4767,11772,01.130,552
2023-06-03T03:06:11,42.805,6.029,CST-1368DR,4299,4767,11772,01.130,552
2023-06-03T03:09:13,42.805,6.029,CST-1368DR,4299,4767,11771,01.131,552
2023-06-03T03:12:14,42.805,6.029,CST-1368DR,4299,4767,11772,01.130,552
2023-06-03T03:15:16,42.805,6.029,CST-1368DR,4299,4766,11770,01.131,552
2023-06-03T03:18:17,42.805,6.029,CST-1368DR,4299,4766,11771,01.131,552
2023-06-03T03:21:19,42.805,6.029,CST-1368DR,4299,4766,11770,01.131,552
2023-06-03T03:24:21,42.805,6.029,CST-1368DR,4299,4766,11771,01.131,552
2023-06-03T03:27:22,42.805,6.029,CST-1368DR,4299,4766,11770,01.131,552
2023-06-03T03:30:24,42.805,6.029,CST-1368DR,4299,4767,11773,01.130,552
2023-06-03T03:33:25,42.805,6.029,CST-1368DR,4299,4767,11772,01.130,552
2023-06-03T03:36:27,42.805,6.029,CST-1368DR,4299,4768,11774,01.130,552
2023-06-03T03:39:29,42.805,6.029,CST-1368DR,4299,4769,11777,01.129,552
2023-06-03T03:42:30,42.805,6.029,CST-1368DR,4299,4768,11774,01.130,552
2023-06-03T03:45:32,42.805,6.029,CST-1368DR,4299,4766,11771,01.131,552
2023-06-03T03:48:33,42.805,6.029,CST-1368DR,4299,4768,11774,01.130,552
2023-06-03T03:51:35,42.805,6.029,CST-1368DR,4299,4768,11774,01.130,552
2023-06-03T03:54:36,42.805,6.029,CST-1368DR,4299,4768,11774,01.130,552
2023-06-03T03:57:38,42.805,6.029,CST-1368DR,4299,4767,11773,01.130,552
2023-06-03T04:00:40,42.805,6.029,CST-1368DR,4299,4769,11776,01.129,552
2023-06-03T04:03:41,42.805,6.029,CST-1368DR,4299,4767,11772,01.130,552
2023-06-03T04:06:43,42.805,6.029,CST-1368DR,4299,4768,11774,01.130,552
2023-06-03T04:09:44,42.805,6.029,CST-1368DR,4299,4768,11774,01.130,552
2023-06-03T04:12:46,42.805,6.029,CST-1368DR,4299,4765,11768,01.132,552
2023-06-03T04:15:47,42.805,6.029,CST-1368DR,4299,4761,11757,01.135,552
2023-06-03T04:18:49,42.805,6.029,CST-1368DR,4299,4768,11774,01.130,552
2023-06-03T04:21:51,42.805,6.029,CST-1368DR,4299,4769,11776,01.129,552
2023-06-03T04:24:52,42.805,6.029,CST-1368DR,4299,4767,11773,01.130,552
2023-06-03T04:27:54,42.805,6.029,CST-1368DR,4299,4768,11774,01.130,552
2023-06-03T04:30:55,42.805,6.029,CST-1368DR,4299,4766,11771,01.131,552
2023-06-03T04:33:57,42.805,6.029,CST-1368DR,4299,4767,11772,01.130,552
2023-06-03T04:36:58,42.805,6.029,CST-1368DR,4299,4768,11774,01.130,552
2023-06-03T04:40:00,42.805,6.029,CST-1368DR,4299,4769,11776,01.129,552
2023-06-03T04:43:02,42.805,6.029,CST-1368DR,4299,4767,11773,01.130,552
2023-06-03T04:46:03,42.805,6.029,CST-1368DR,4299,4768,11774,01.130,552
2023-06-03T04:49:05,42.805,6.029,CST-1368DR,4299,4768,11774,01.130,552
2023-06-03T04:52:06,42.805,6.029,CST-1368DR,4299,4768,11775,01.129,552
2023-06-03T04:55:08,42.805,6.029,CST-1368DR,4299,4766,11770,01.131,552
2023-06-03T04:58:10,42.805,6.029,CST-1368DR,4299,4766,11770,01.131,552
2023-06-03T05:01:11,42.805,6.029,CST-1368DR,4299,4767,11772,01.130,552
2023-06-03T05:04:13,42.805,6.029,CST-1368DR,4299,4768,11775,01.129,552
2023-06-03T05:07:14,42.805,6.029,CST-1368DR,4299,4767,11772,01.130,552
2023-06-03T05:10:16,42.805,6.029,CST-1368DR,4299,4767,11772,01.130,552
2023-06-03T05:13:17,42.805,6.029,CST-1368DR,4299,4766,11770,01.131,552
2023-06-03T05:16:19,42.805,6.029,CST-1368DR,4299,4768,11774,01.130,552
2023-06-03T05:19:21,42.805,6.029,CST-1368DR,4299,4767,11772,01.130,552
2023-06-03T05:22:22,42.805,6.029,CST-1368DR,4299,4766,11770,01.131,552
2023-06-03T05:25:24,42.805,6.029,CST-1368DR,4299,4767,11771,01.131,552
2023-06-03T05:28:25,42.805,6.029,CST-1368DR,4299,4766,11769,01.131,552
2023-06-03T05:31:27,42.805,6.029,CST-1368DR,4299,4766,11771,01.131,552
2023-06-03T05:34:28,42.805,6.029,CST-1368DR,4299,4766,11771,01.131,552
2023-06-03T05:37:30,42.805,6.029,CST-1368DR,4299,4767,11771,01.131,552
2023-06-03T05:40:32,42.805,6.029,CST-1368DR,4299,4764,11764,01.133,552
2023-06-03T05:43:33,42.805,6.029,CST-1368DR,4299,4766,11771,01.131,552
2023-06-03T05:46:35,42.805,6.029,CST-1368DR,4299,4767,11771,01.131,552
2023-06-03T05:49:36,42.805,6.029,CST-1368DR,4299,4767,11772,01.130,552
2023-06-03T05:52:38,42.805,6.029,CST-1368DR,4299,4766,11771,01.131,552
2023-06-03T05:55:39,42.805,6.029,CST-1368DR,4299,4767,11772,01.130,552
2023-06-03T05:58:41,42.805,6.029,CST-1368DR,4299,4767,11772,01.130,552
2023-06-03T06:01:43,42.805,6.029,CST-1368DR,4299,4767,11771,01.131,552
2023-06-03T06:04:44,42.805,6.029,CST-1368DR,4299,4767,11772,01.130,552
2023-06-03T06:07:46,42.805,6.029,CST-1368DR,4299,4767,11772,01.130,552
2023-06-03T06:10:47,42.805,6.029,CST-1368DR,4299,4767,11772,01.130,552
2023-06-03T06:13:49,42.805,6.029,CST-1368DR,4299,4766,11770,01.131,552
2023-06-03T06:16:51,42.805,6.029,CST-1368DR,4299,4767,11772,01.130,552
2023-06-03T06:19:52,42.805,6.029,CST-1368DR,4299,4767,11772,01.130,552
2023-06-03T06:22:54,42.805,6.029,CST-1368DR,4299,4766,11769,01.131,552
2023-06-03T06:25:55,42.805,6.029,CST-1368DR,4299,4767,11772,01.130,552
2023-06-03T06:28:57,42.805,6.029,CST-1368DR,4299,4767,11772,01.130,552
2023-06-03T06:32:01,42.805,6.029,CST-1368DR,4299,4767,11772,01.130,552
2023-06-03T06:35:03,42.805,6.029,CST-1368DR,4299,4767,11772,01.130,552
2023-06-03T06:38:04,42.805,6.029,CST-1368DR,4299,4767,11771,01.131,552
2023-06-03T06:41:06,42.805,6.029,CST-1368DR,4299,4767,11772,01.130,552
2023-06-03T06:44:07,42.805,6.029,CST-1368DR,4299,4767,11772,01.130,552
2023-06-03T06:47:09,42.805,6.029,CST-1368DR,4299,4767,11771,01.131,552
2023-06-03T06:50:10,42.805,6.029,CST-1368DR,4299,4766,11771,01.131,552
2023-06-03T06:53:12,42.805,6.029,CST-1368DR,4299,4767,11772,01.130,552
2023-06-03T06:56:14,42.805,6.029,CST-1368DR,4299,4767,11772,01.130,552
2023-06-03T06:59:15,42.805,6.029,CST-1368DR,4299,4766,11771,01.131,552
2023-06-03T07:02:17,42.805,6.029,CST-1368DR,4299,4766,11770,01.131,552
2023-06-03T07:05:18,42.805,6.029,CST-1368DR,4299,4766,11771,01.131,552
2023-06-03T07:08:20,42.805,6.029,CST-1368DR,4299,4766,11771,01.131,552
2023-06-03T07:11:21,42.805,6.029,CST-1368DR,4299,4766,11770,01.131,552
2023-06-03T07:14:23,42.805,6.029,CST-1368DR,4299,4762,11760,01.134,552
2023-06-03T07:17:25,42.805,6.029,CST-1368DR,4299,4767,11772,01.130,552
2023-06-03T07:20:26,42.805,6.029,CST-1368DR,4299,4768,11774,01.130,552
2023-06-03T07:23:28,42.805,6.029,CST-1368DR,4299,4767,11771,01.131,552
2023-06-03T07:26:29,42.805,6.029,CST-1368DR,4299,4767,11773,01.130,552
2023-06-03T07:29:31,42.805,6.029,CST-1368DR,4299,4767,11771,01.131,552
2023-06-03T07:32:32,42.805,6.029,CST-1368DR,4299,4767,11773,01.130,552
2023-06-03T07:35:34,42.805,6.029,CST-1368DR,4299,4767,11772,01.130,552
2023-06-03T07:38:36,42.805,6.029,CST-1368DR,4299,4767,11773,01.130,552
2023-06-03T07:41:37,42.805,6.029,CST-1368DR,4299,4766,11770,01.131,552
2023-06-03T07:44:39,42.805,6.029,CST-1368DR,4299,4767,11773,01.130,552
2023-06-03T07:47:40,42.805,6.029,CST-1368DR,4299,4767,11773,01.130,552
2023-06-03T07:50:42,42.805,6.029,CST-1368DR,4299,4767,11772,01.130,552
2023-06-03T07:53:44,42.805,6.029,CST-1368DR,4299,4767,11772,01.130,552
2023-06-03T07:56:45,42.805,6.029,CST-1368DR,4299,4767,11773,01.130,552
2023-06-03T07:59:47,42.805,6.029,CST-1368DR,4299,4769,11776,01.129,552
2023-06-03T08:02:48,42.805,6.029,CST-1368DR,4299,4768,11775,01.129,552
2023-06-03T08:05:50,42.805,6.029,CST-1368DR,4299,4766,11769,01.131,552
2023-06-03T08:08:51,42.805,6.029,CST-1368DR,4299,4766,11770,01.131,552
2023-06-03T08:11:53,42.805,6.029,CST-1368DR,4299,4767,11773,01.130,552
2023-06-03T08:14:55,42.805,6.029,CST-1368DR,4299,4767,11772,01.130,552
2023-06-03T08:17:56,42.805,6.029,CST-1368DR,4299,4768,11774,01.130,552
2023-06-03T08:20:58,42.805,6.029,CST-1368DR,4299,4768,11774,01.130,552
2023-06-03T08:23:59,42.805,6.029,CST-1368DR,4299,4767,11773,01.130,552
2023-06-03T08:27:01,42.805,6.029,CST-1368DR,4299,4766,11770,01.131,552
2023-06-03T08:30:03,42.805,6.029,CST-1368DR,4299,4767,11773,01.130,552
2023-06-03T08:33:04,42.805,6.029,CST-1368DR,4299,4768,11774,01.130,552
2023-06-03T08:36:06,42.805,6.029,CST-1368DR,4299,4767,11772,01.130,552
2023-06-03T08:39:07,42.805,6.029,CST-1368DR,4299,4767,11773,01.130,552
2023-06-03T08:42:09,42.805,6.029,CST-1368DR,4299,4768,11774,01.130,552
2023-06-03T08:45:10,42.805,6.029,CST-1368DR,4299,4768,11775,01.129,552
2023-06-03T08:48:12,42.805,6.029,CST-1368DR,4299,4767,11773,01.130,552
2023-06-03T08:51:14,42.805,6.029,CST-1368DR,4299,4768,11774,01.130,552
2023-06-03T08:54:15,42.805,6.029,CST-1368DR,4299,4768,11775,01.129,552
2023-06-03T08:57:17,42.805,6.029,CST-1368DR,4299,4766,11770,01.131,552
2023-06-03T09:00:18,42.805,6.029,CST-1368DR,4299,4767,11772,01.130,552
2023-06-03T09:03:20,42.805,6.029,CST-1368DR,4299,4767,11772,01.130,552
2023-06-03T09:06:21,42.805,6.029,CST-1368DR,4299,4766,11769,01.131,552
2023-06-03T09:09:23,42.805,6.029,CST-1368DR,4299,4768,11774,01.130,552
2023-06-03T09:12:25,42.805,6.029,CST-1368DR,4299,4768,11775,01.129,552
2023-06-03T09:15:26,42.805,6.029,CST-1368DR,4299,4767,11773,01.130,552
2023-06-03T09:18:28,42.805,6.029,CST-1368DR,4299,4767,11772,01.130,552
2023-06-03T09:21:29,42.805,6.029,CST-1368DR,4299,4769,11777,01.129,552
2023-06-03T09:24:31,42.805,6.029,CST-1368DR,4299,4766,11769,01.131,552
2023-06-03T09:27:32,42.805,6.029,CST-1368DR,4299,4769,11776,01.129,552
2023-06-03T09:30:34,42.805,6.029,CST-1368DR,4299,4768,11775,01.129,552
2023-06-03T09:33:36,42.805,6.029,CST-1368DR,4299,4769,11778,01.128,552
2023-06-03T09:36:37,42.805,6.029,CST-1368DR,4299,4769,11776,01.129,552
2023-06-03T09:39:39,42.805,6.029,CST-1368DR,4299,4766,11770,01.131,552
2023-06-03T09:42:40,42.805,6.029,CST-1368DR,4299,4768,11774,01.130,552
2023-06-03T09:45:42,42.805,6.029,CST-1368DR,4299,4769,11776,01.129,552
2023-06-03T09:48:44,42.805,6.029,CST-1368DR,4299,4767,11772,01.130,552
2023-06-03T09:51:45,42.805,6.029,CST-1368DR,4299,4768,11775,01.129,552
2023-06-03T09:54:47,42.805,6.029,CST-1368DR,4299,4768,11774,01.130,552
2023-06-03T09:57:48,42.805,6.029,CST-1368DR,4299,4768,11775,01.129,552
2023-06-03T10:00:50,42.805,6.029,CST-1368DR,4299,4768,11774,01.130,552
2023-06-03T10:03:51,42.805,6.029,CST-1368DR,4299,4768,11774,01.130,552
2023-06-03T10:06:53,42.805,6.029,CST-1368DR,4299,4768,11775,01.129,552
2023-06-03T10:09:55,42.805,6.029,CST-1368DR,4299,4768,11774,01.130,552
2023-06-03T10:12:56,42.805,6.029,CST-1368DR,4299,4767,11772,01.130,552
2023-06-03T10:15:58,42.805,6.029,CST-1368DR,4299,4769,11777,01.129,552
2023-06-03T10:18:59,42.805,6.029,CST-1368DR,4299,4769,11776,01.129,552
2023-06-03T10:22:01,42.805,6.029,CST-1368DR,4299,4765,11768,01.132,552
2023-06-03T10:25:02,42.805,6.029,CST-1368DR,4299,4769,11776,01.129,552
2023-06-03T10:28:04,42.805,6.029,CST-1368DR,4299,4769,11776,01.129,552
2023-06-03T10:31:06,42.805,6.029,CST-1368DR,4299,4769,11776,01.129,552
2023-06-03T10:34:08,42.805,6.029,CST-1368DR,4299,4769,11776,01.129,552
2023-06-03T10:37:09,42.805,6.029,CST-1368DR,4299,4769,11776,01.129,552
2023-06-03T10:40:11,42.805,6.029,CST-1368DR,4299,4769,11777,01.129,552
2023-06-03T10:43:13,42.805,6.029,CST-1368DR,4299,4769,11776,01.129,552
2023-06-03T10:46:14,42.805,6.029,CST-1368DR,4299,4768,11774,01.130,552
2023-06-03T10:49:16,42.805,6.029,CST-1368DR,4299,4767,11772,01.130,552
2023-06-03T10:52:17,42.805,6.029,CST-1368DR,4299,4769,11776,01.129,552
2023-06-03T10:55:19,42.805,6.029,CST-1368DR,4299,4768,11775,01.129,552
2023-06-03T10:58:21,42.805,6.029,CST-1368DR,4299,4768,11774,01.130,552
2023-06-03T11:01:22,42.805,6.029,CST-1368DR,4299,4768,11775,01.129,552
2023-06-03T11:04:24,42.805,6.029,CST-1368DR,4299,4769,11776,01.129,552
2023-06-03T11:07:25,42.805,6.029,CST-1368DR,4299,4768,11774,01.130,552
2023-06-03T11:10:27,42.805,6.029,CST-1368DR,4299,4768,11775,01.129,552
2023-06-03T11:13:28,42.805,6.029,CST-1368DR,4299,4769,11776,01.129,552
2023-06-03T11:16:30,42.805,6.029,CST-1368DR,4299,4768,11774,01.130,552
2023-06-03T11:19:32,42.805,6.029,CST-1368DR,4299,4768,11774,01.130,552
2023-06-03T11:22:33,42.805,6.029,CST-1368DR,4299,4767,11773,01.130,552
2023-06-03T11:25:35,42.805,6.029,CST-1368DR,4299,4760,11754,01.136,552
2023-06-03T11:28:36,42.805,6.029,CST-1368DR,4299,4767,11771,01.131,552
2023-06-03T11:31:38,42.805,6.029,CST-1368DR,4299,4767,11771,01.131,552
2023-06-03T11:34:39,42.805,6.029,CST-1368DR,4299,4766,11769,01.131,552
2023-06-03T11:37:41,42.805,6.029,CST-1368DR,4299,4768,11774,01.130,552
2023-06-03T11:40:43,42.805,6.029,CST-1368DR,4299,4767,11772,01.130,552
2023-06-03T11:43:44,42.805,6.029,CST-1368DR,4299,4766,11771,01.131,552
2023-06-03T11:46:46,42.805,6.029,CST-1368DR,4299,4766,11770,01.131,552
2023-06-03T11:49:47,42.805,6.029,CST-1368DR,4299,4767,11772,01.130,552
2023-06-03T11:52:49,42.805,6.029,CST-1368DR,4299,4764,11766,01.132,552
2023-06-03T11:55:51,42.805,6.029,CST-1368DR,4299,4766,11771,01.131,552
2023-06-03T11:58:52,42.805,6.029,CST-1368DR,4299,4766,11770,01.131,552
2023-06-03T12:01:54,42.805,6.029,CST-1368DR,4299,4766,11769,01.131,552
2023-06-03T12:04:55,42.805,6.029,CST-1368DR,4299,4766,11770,01.131,552
2023-06-03T12:07:57,42.805,6.029,CST-1368DR,4299,4766,11771,01.131,552
2023-06-03T12:10:58,42.805,6.029,CST-1368DR,4299,4765,11766,01.132,552
2023-06-03T12:14:00,42.805,6.029,CST-1368DR,4299,4765,11766,01.132,552
2023-06-03T12:17:02,42.805,6.029,CST-1368DR,4299,4760,11755,01.136,552
2023-06-03T12:20:03,42.805,6.029,CST-1368DR,4299,4764,11764,01.133,552
2023-06-03T12:23:05,42.805,6.029,CST-1368DR,4299,4764,11766,01.132,552
2023-06-03T12:26:06,42.805,6.029,CST-1368DR,4299,4764,11764,01.133,552
2023-06-03T12:29:08,42.805,6.029,CST-1368DR,4299,4764,11764,01.133,552
2023-06-03T12:32:10,42.805,6.029,CST-1368DR,4299,4763,11763,01.133,552
2023-06-03T12:35:12,42.805,6.029,CST-1368DR,4299,4759,11753,01.137,552
2023-06-03T12:38:13,42.805,6.029,CST-1368DR,4299,4764,11765,01.133,552
2023-06-03T12:41:15,42.805,6.029,CST-1368DR,4299,4764,11766,01.132,552
2023-06-03T12:44:17,42.805,6.029,CST-1368DR,4299,4764,11764,01.133,552
2023-06-03T12:47:18,42.805,6.029,CST-1368DR,4299,4764,11765,01.133,552
2023-06-03T12:50:20,42.805,6.029,CST-1368DR,4299,4763,11762,01.134,552
2023-06-03T12:53:21,42.805,6.029,CST-1368DR,4299,4764,11766,01.132,552
2023-06-03T12:56:23,42.805,6.029,CST-1368DR,4299,4764,11764,01.133,552
2023-06-03T12:59:24,42.805,6.029,CST-1368DR,4299,4764,11764,01.133,552
2023-06-03T13:02:26,42.805,6.029,CST-1368DR,4299,4761,11758,01.135,552
2023-06-03T13:05:28,42.805,6.029,CST-1368DR,4299,4761,11757,01.135,552
2023-06-03T13:08:29,42.805,6.029,CST-1368DR,4299,4763,11761,01.134,552
2023-06-03T13:11:31,42.805,6.029,CST-1368DR,4299,4762,11759,01.135,552
2023-06-03T13:14:32,42.805,6.029,CST-1368DR,4299,4756,11745,01.139,552
2023-06-03T13:17:34,42.805,6.029,CST-1368DR,4299,4761,11757,01.135,552
2023-06-03T13:20:35,42.805,6.029,CST-1368DR,4299,4762,11759,01.135,552
2023-06-03T13:23:37,42.805,6.029,CST-1368DR,4299,4761,11756,01.136,552
2023-06-03T13:26:39,42.805,6.029,CST-1368DR,4299,4760,11754,01.136,552
2023-06-03T13:29:40,42.805,6.029,CST-1368DR,4299,4761,11756,01.136,552
2023-06-03T13:32:42,42.805,6.029,CST-1368DR,4299,4760,11755,01.136,552
2023-06-03T13:35:43,42.805,6.029,CST-1368DR,4299,4760,11756,01.136,552
2023-06-03T13:38:45,42.805,6.029,CST-1368DR,4299,4755,11743,01.140,552
2023-06-03T13:41:47,42.805,6.029,CST-1368DR,4299,4761,11758,01.135,552
2023-06-03T13:44:48,42.805,6.029,CST-1368DR,4299,4758,11750,01.138,552
2023-06-03T13:47:50,42.805,6.029,CST-1368DR,4299,4760,11754,01.136,552
2023-06-03T13:50:51,42.805,6.029,CST-1368DR,4299,4760,11755,01.136,552
2023-06-03T13:53:53,42.805,6.029,CST-1368DR,4299,4760,11755,01.136,552
2023-06-03T13:56:54,42.805,6.029,CST-1368DR,4299,4759,11753,01.137,552
2023-06-03T13:59:56,42.805,6.029,CST-1368DR,4299,4760,11755,01.136,552
2023-06-03T14:02:58,42.805,6.029,CST-1368DR,4299,4760,11755,01.136,552
2023-06-03T14:05:59,42.805,6.029,CST-1368DR,4299,4760,11754,01.136,552
2023-06-03T14:09:01,42.805,6.029,CST-1368DR,4299,4759,11752,01.137,552
2023-06-03T14:12:02,42.805,6.029,CST-1368DR,4299,4761,11757,01.135,552
2023-06-03T14:15:04,42.805,6.029,CST-1368DR,4299,4758,11749,01.138,552
2023-06-03T14:18:06,42.805,6.029,CST-1368DR,4299,4760,11755,01.136,552
2023-06-03T14:21:07,42.805,6.029,CST-1368DR,4299,4760,11754,01.136,552
2023-06-03T14:24:09,42.805,6.029,CST-1368DR,4299,4760,11754,01.136,552
2023-06-03T14:27:10,42.805,6.029,CST-1368DR,4299,4760,11754,01.136,552
2023-06-03T14:30:13,42.805,6.029,CST-1368DR,4299,4758,11751,01.137,552
2023-06-03T14:33:14,42.805,6.029,CST-1368DR,4299,4760,11754,01.136,552
2023-06-03T14:36:16,42.805,6.029,CST-1368DR,4299,4759,11751,01.137,552
2023-06-03T14:39:18,42.805,6.029,CST-1368DR,4299,4760,11755,01.136,552
2023-06-03T14:42:19,42.805,6.029,CST-1368DR,4299,4759,11752,01.137,552
2023-06-03T14:45:21,42.805,6.029,CST-1368DR,4299,4759,11751,01.137,552
2023-06-03T14:48:22,42.805,6.029,CST-1368DR,4299,4762,11759,01.135,552
2023-06-03T14:51:24,42.805,6.029,CST-1368DR,4299,4758,11751,01.137,552
2023-06-03T14:54:25,42.805,6.029,CST-1368DR,4299,4757,11747,01.139,552
2023-06-03T14:57:27,42.805,6.029,CST-1368DR,4299,4757,11748,01.138,552
2023-06-03T15:00:29,42.805,6.029,CST-1368DR,4299,4757,11747,01.139,552
2023-06-03T15:03:30,42.805,6.029,CST-1368DR,4299,4757,11748,01.138,552
2023-06-03T15:06:32,42.805,6.029,CST-1368DR,4299,4756,11746,01.139,552
2023-06-03T15:09:33,42.805,6.029,CST-1368DR,4299,4758,11750,01.138,552
2023-06-03T15:12:35,42.805,6.029,CST-1368DR,4299,4757,11748,01.138,552
2023-06-03T15:15:36,42.805,6.029,CST-1368DR,4299,4757,11748,01.138,552
2023-06-03T15:18:38,42.805,6.029,CST-1368DR,4299,4756,11746,01.139,552
2023-06-03T15:21:40,42.805,6.029,CST-1368DR,4299,4759,11751,01.137,552
2023-06-03T15:24:41,42.805,6.029,CST-1368DR,4299,4757,11748,01.138,552
2023-06-03T15:27:43,42.805,6.029,CST-1368DR,4299,4757,11746,01.139,552
2023-06-03T15:30:44,42.805,6.029,CST-1368DR,4299,4759,11751,01.137,552
2023-06-03T15:33:46,42.805,6.029,CST-1368DR,4299,4758,11750,01.138,552
2023-06-03T15:36:48,42.805,6.029,CST-1368DR,4299,4752,11736,01.143,552
2023-06-03T15:39:49,42.805,6.029,CST-1368DR,4299,4758,11749,01.138,552
2023-06-03T15:42:51,42.805,6.029,CST-1368DR,4299,4758,11750,01.138,552
2023-06-03T15:45:52,42.805,6.029,CST-1368DR,4299,4756,11746,01.139,552
2023-06-03T15:48:54,42.805,6.029,CST-1368DR,4299,4759,11752,01.137,552
2023-06-03T15:51:55,42.805,6.029,CST-1368DR,4299,4758,11750,01.138,552
2023-06-03T15:54:57,42.805,6.029,CST-1368DR,4299,4757,11748,01.138,552
2023-06-03T15:57:59,42.805,6.029,CST-1368DR,4299,4757,11748,01.138,552
2023-06-03T16:01:00,42.805,6.029,CST-1368DR,4299,4758,11751,01.137,552
2023-06-03T16:04:02,42.805,6.029,CST-1368DR,4299,4758,11751,01.137,552
2023-06-03T16:07:03,42.805,6.029,CST-1368DR,4299,4757,11748,01.138,552
2023-06-03T16:10:05,42.805,6.029,CST-1368DR,4299,4757,11746,01.139,552
2023-06-03T16:13:06,42.805,6.029,CST-1368DR,4299,4756,11745,01.139,552
2023-06-03T16:16:08,42.805,6.029,CST-1368DR,4299,4759,11752,01.137,552
2023-06-03T16:19:10,42.805,6.029,CST-1368DR,4299,4756,11746,01.139,552
2023-06-03T16:22:11,42.805,6.029,CST-1368DR,4299,4758,11751,01.137,552
2023-06-03T16:25:13,42.805,6.029,CST-1368DR,4299,4758,11751,01.137,552
2023-06-03T16:28:14,42.805,6.029,CST-1368DR,4299,4759,11752,01.137,552
2023-06-03T16:31:16,42.805,6.029,CST-1368DR,4298,4752,11739,01.142,552
2023-06-03T16:34:18,42.805,6.029,CST-1368DR,4299,4759,11753,01.137,552
2023-06-03T16:37:19,42.805,6.029,CST-1368DR,4299,4759,11752,01.137,552